Location: Oberwesel
(50.1000°N, 7.7333°E)
Time: 12:36:36
(UTC+02:00)

ISS - Pass Details

Date: 23 May 2025
Orbit: 415 x 418 km, 51.6° (Epoch: 19 June)

Event Time Altitude Azimuth Distance (km) Brightness Sun altitude
Rises 22:10:26 0° 287° (WNW) 2,363 1.3 -7.1°
Reaches altitude 10° 22:12:36 10° 281° (W) 1,496 0.0 -7.3°
Maximum altitude 22:15:48 43° 209° (SSW) 601 -3.1 -7.7°
Enters shadow 22:18:49 11° 137° (SE) 1,426 -1.8 -8.0°
